Location: Gleizolles
(44.4833°N, 6.7667°E)
Time: 15:32:35
(UTC+00:00)

Altair - Pass Details

Date: 30 June 2024
Orbit: 1502 x 1681 km, 47.2° (Epoch: 13 July)

Event Time Altitude Azimuth Distance (km) Brightness Sun altitude
Rises 23:36:33 0° 242° (WSW) 4,630 9.8 -22.4°
Reaches altitude 10° 23:39:32 10° 242° (WSW) 3,648 9.2 -22.4°
Maximum altitude 23:48:42 82° 156° (SSE) 1,527 7.3 -22.4°
Drops below altitude 10° 23:58:05 10° 71° (ENE) 3,723 9.8 -22.3°
Sets 00:01:10 0° 71° (ENE) 4,729 10.4 -22.2°
